Location: Brno
(49.2000°N, 16.6330°E)
Time: 12:00:45
(UTC+02:00)

Iridium 2 - Visible Passes

Search period start: 28 May 2015 00:00
Search period end: 07 June 2015 00:00
Orbit: 522 x 535 km, 85.5° (Epoch: 27 May)

Date Brightness Start Highest point End Pass type
(mag) Time Alt. Az. Time Alt. Az. Time Alt. Az.
28 May 5.2 03:10:21 10° N 03:14:01 36° ENE 03:17:41 10° SSE visible
29 May 5.4 02:59:28 10° NNE 03:03:04 33° ENE 03:06:38 10° SE visible
30 May 5.6 02:48:37 10° NNE 02:52:05 29° ENE 02:55:34 10° SE visible
31 May 5.7 02:37:45 10° NNE 02:41:06 26° ENE 02:44:29 10° SE visible
01 Jun 5.9 02:26:54 10° NNE 02:30:07 24° ENE 02:33:22 10° SE visible
01 Jun 4.7 04:02:19 10° NNW 04:05:51 31° W 04:09:18 10° SSW visible
02 Jun 6.0 02:16:04 10° NNE 02:19:07 22° ENE 02:22:14 10° SE visible
02 Jun 4.6 03:51:18 10° NNW 03:54:55 35° W 03:58:29 10° SSW visible
03 Jun 6.1 02:05:14 10° NNE 02:08:06 20° ENE 02:11:03 10° ESE visible
03 Jun 4.4 03:40:17 10° NNW 03:43:59 39° W 03:47:37 10° SSW visible
04 Jun 6.3 01:54:25 10° NNE 01:57:05 18° ENE 01:59:51 10° ESE visible
04 Jun 4.2 03:29:16 10° NNW 03:33:02 44° W 03:36:26 12° SSW visible
05 Jun 6.4 01:43:38 10° NNE 01:46:04 16° ENE 01:48:36 10° ESE visible
05 Jun 4.1 03:18:15 10° NNW 03:22:05 49° W 03:25:15 14° SSW visible
06 Jun 6.4 01:32:52 10° NE 01:35:02 14° ENE 01:37:18 10° ESE visible
06 Jun 3.9 03:07:14 10° NNW 03:11:07 56° W 03:14:05 16° SSW visible
